星链-31494 (STARLINK-31494 )

导读 | 星芒AI

STARLINK-31494 是 SpaceX 星链计划中的一颗低轨通信卫星,属于第四批星链卫星群。该卫星于2023年发射,运行在约550公里高度的近地轨道,旨在为全球用户提供高速互联网服务。星链项目通过部署大量卫星,构建覆盖全球的宽带网络,尤其服务于偏远地区。STARLINK-31494 采用先进推进和通信技术,具备自动避障功能,有助于提升星座运行的安全性和效率。

基本信息
目录编号:
59238
目录名称:
STARLINK-31494
国际标识:
2024-049H
轨道中心:
EARTH
卫星名称:
星链-31494
卫星全名:
星链-31494 (STARLINK-31494 )
卫星状态:
在轨 (已飞行644 天)
发射日期:
2024-03-16 UTC
国别 :
美国 (US)
星等 :
--
轨道信息
数据来源 国际轨道数据
星历时间: 2025-12-20T00:30:58+0800
8小时前
查看轨道信息
半长轴: 6861.199km
偏心率: 0.000142
轨道倾角: 43.001°
近地点辐角 265.901°
升交点赤经 235.106°
平近点角 94.168°
近地点: 482.087km
远地点: 484.037km
周期: 94.267分钟
每日圈数: 15.27576
详细信息
固有亮度:
5
最大亮度:
0.3
卫星平台:
Starlink v2.0 mini
覆盖范围:
全球
运营商:
太空探索技术公司
运营商所在国:
美国
制造商(研发单位):
太空探索技术公司
制造商所在国:
美国
使用方式:
暂无
卫星简介
星链(Starlink)计划是由太空探索技术公司(SpaceX)提出的一个巨型低轨卫星互联网星座项目,计划在2019年至2024年间在太空搭建由约1.2万颗卫星组成的“星链”网络,其中1584颗将部署在地球上空550千米处的近地轨道,并从2020年开始工作。该卫星仍在工作。
2D轨道图
3D轨道图
轨道高度分析图
轨道倾角分析图
轨道综合分析图
查看轨道综合分析图